COSMOS 1275 DEB, 12690

Orbit data source: Space-Track

COSMOS 1275 DEB, 12690 is space debris in LEO originally from a launch on Thu, 04 Jun 1981 UTC launched from the Plesetsk Missile And Space Complex (PKMTR). Debris objects in space refer to the collection of defunct objects orbiting the Earth. Examples of debris include non-operational satellites, rocket bodies, and fragments generated from explosions, collisions, or faulty payload assembly.

Loading next visibility...
Identifier
12690, 1981-053AJ
Orbit
LEO
Country
Flag of CISCIS
Related business
Manufacturer
Unknown
Mission
Spacecraft
Bus & Motor
Unknown
Mass
Unknown
Launch date (UTC)
1981-06-04 (45 years ago)
Launch vehicle
Unknown
Launch site
Plesetsk Missile And Space Complex (PKMTR)
Object type
Payload
Rocket body
Debris
Shape & HBR
Unknown shape, 0.3 m
Radar Cross Section
Medium (>0.1 m² and <1 m²)

Expand to show TLE details & history
Last TLE update: 2 days ago

TLE from 2 days ago
0 COSMOS 1275 DEB
1 12690U 81053AJ  26171.46437691  .00000894  00000-0  73286-3 0  9992
2 12690  82.9526 332.0292 0092182 103.1167 310.2600 13.86430784244583
Epoch: 2026-06-20T11:08Z
TLE epoch observation values (Epoch: 2026-06-20T11:08:42.165Z)
Latitude
52.10141°
Longitude
-94.73562°
Altitude
906.361 km
Speed
7.426 km/s
True Right ascension
22h 44m 28s
True Declination
51° 56' 17"
Sunlit
Object was in daylight at epoch
Visualization orbit readout
Latitude
Unknown
Longitude
Unknown
Altitude
Unknown
Speed
Unknown
Apparent Right ascension
Unknown
Apparent Declination
Unknown
Sunlit
N/A
Visualization observer readout
Local Sidereal Time
21:04:34
Azimuth
Unknown
Elevation
Unknown
Doppler factor
Unknown
Orbital elements
Apogee altitude
1,005.742 km
Perigee altitude
870.854 km
Semi-major axis
7,316.435 km
Eccentricity
0.00922
Inclination
82.9526°
RAAN
332.0292°
Arg. of periapsis
103.1167°
True anomaly
309.44788°
Mean anomaly
310.26°
Eccentric anomaly
309.85454°
Mean motion
3.46812 °/min
Orbital period
103.8 mins
BSTAR
0.00073286
Loading maneuver chart data...
Computing Atmospheric mass density...
Loading historical data...
Loading historical data...
Loading historical data...
Loading historical data...
Loading historical data...
Loading historical data...
Loading historical data...

Documentation

Showing up to 5 results
|